CLUSTER II-FM5 (RUMBA)

Last updated on Thu Nov 21 2024 00:03:26 GMT+0000 (Coordinated Universal Time)

1 26463U 00045A 24326.36966546 .00003108 00000+0 00000+0 0 9992 2 26463 153.2632 38.6001 8855898 254.9949 0.1855 0.42904450 17663
UTC large
Height (km)
Speed (km/s)
/
Latitude / Longitude
Inclination (degrees)
Orbital Period (minutes)
Azimuth
Elevation
Range (km)
Doppler Factor

Next 0 passes for location: London (51.5072 / 0.1276)

Sorry there are no passes over London.